Flag for Mexico Weather past 2 weeks in Querétaro, Querétaro, Mexico

Now
61 °F

Passing clouds.


Feels Like: 61 °F
Forecast: 56 / 80 °F
Wind: 6 mph from Northeast

Location: Queretaro - Qro.

Current Time: Aug 22, 2014 at 1:56:20 AM

Latest Report: Aug 22, 2014 at 12:45 AM


Visibility: 7 mi

Pressure: 30.34 "Hg

Humidity: 83%

Dew point: 55 °F

Location of QuerétaroLocation

Historic Weather in Querétaro — Graph

°F

Querétaro temperature yesterday

Maximum temperature yesterday: 77 °F (at 4:45 PM)
Minimum temperature yesterday: 55 °F (at 7:45 AM)
Average temperature yesterday: 65 °F

Past Weeks' High & Low Weather Summary

 TemperatureHumidityPressure
High84 °F (Aug 16, 3:45 PM)100% (Aug 16, 9:00 PM)30.38 "Hg (Aug 16, 9:00 PM)
Low54 °F (Aug 8, 5:45 AM)32% (Aug 13, 1:45 PM)30.17 "Hg (Aug 19, 8:45 PM)
Average66 °F70%30.31 "Hg
* Reported Aug 7 12:45 AM — Aug 22 12:45 AM, Querétaro, Weather by CustomWeather, © 2014

Note: Actual official high and low records may vary slightly from our data, if they occured in-between our weather recording intervals... More about our weather records

Advertising

Querétaro weather history for previous 24 hours

 ConditionsComfort  
Time TempWeatherWind HumidityBarometerVisibility
12:45 AM
Aug 22
61 °FPassing clouds.6 mph83%30.34 "Hg7 mi
11:45 PM
Aug 21
63 °FPassing clouds.No wind77%30.34 "Hg7 mi
10:45 PM63 °FPassing clouds.No wind77%30.34 "Hg7 mi
9:45 PM64 °FPassing clouds.9 mph68%30.34 "Hg7 mi
8:45 PM66 °FPartly sunny.12 mph60%30.30 "Hg7 mi
7:45 PM64 °FPartly sunny.12 mph68%30.27 "Hg7 mi
6:45 PM70 °FPartly sunny.12 mph60%30.23 "Hg7 mi
5:45 PM77 °FPartly sunny.17 mph51%30.25 "Hg7 mi
4:45 PM77 °FPartly sunny.12 mph44%30.26 "Hg7 mi
3:45 PM73 °FPartly sunny.14 mph53%30.28 "Hg7 mi
2:45 PM75 °FPartly sunny.7 mph47%30.32 "Hg7 mi
1:45 PM75 °FPartly sunny.14 mph47%30.36 "Hg10 mi
12:45 PM73 °FPartly sunny.12 mph53%30.38 "Hg10 mi
11:45 AM70 °FPartly sunny.6 mph73%30.38 "Hg5 mi
10:45 AM64 °FPartly sunny.6 mph83%30.38 "Hg4 mi
9:45 AM61 °FPartly sunny.No wind72%30.38 "Hg3 mi
8:45 AM57 °FFog.No wind94%30.38 "Hg3 mi
7:45 AM55 °FFog.No wind82%30.34 "Hg2 mi
6:45 AM57 °FPassing clouds.No wind100%30.32 "Hg6 mi
5:45 AM57 °FPartly cloudy.6 mph94%30.31 "Hg6 mi
4:45 AM59 °FPartly cloudy.No wind94%30.31 "Hg7 mi
3:45 AM59 °FPartly cloudy.No wind94%30.33 "Hg7 mi
2:45 AM59 °FPartly cloudy.No wind94%30.34 "Hg7 mi
1:45 AM59 °FPartly cloudy.No wind94%30.36 "Hg7 mi
Weather by CustomWeather, © 2014

See weather overviewHow to use our weather pages